| time (UTC) | temp C | wind direction | speed KPH | gust KPH | rain 1hr cm | rain 24hr cm | rain mn cm | humidity % | barometer mb |
| 20260506160031 | 13 | 110 | 0.0 | 1.6 | 0.00 | 0.00 | 0.00 | 90 | 1019.5 |
| 20260506154506 | 13 | 304 | 0.0 | 0.0 | 0.00 | 0.00 | 0.00 | 90 | 1019.2 |
| 20260506150034 | -17 | 0.0 | 0.0 | 0.00 | 0.00 | 0.00 | 1019.8 | ||
| 20260506143032 | -17 | 0.0 | 0.0 | 0.00 | 0.00 | 0.00 | 1019.5 | ||
| 20260506141523 | -17 | 0.0 | 0.0 | 0.00 | 0.00 | 0.00 | 1019.1 | ||
| 20260506131553 | -17 | 0.0 | 0.0 | 0.00 | 0.00 | 0.00 | 1018.7 | ||
| 20260506113033 | 12 | 117 | 0.0 | 0.0 | 0.00 | 0.00 | 0.00 | 89 | 1018.0 |
| 20260506111528 | 13 | 117 | 0.0 | 0.0 | 0.00 | 0.00 | 0.00 | 89 | 1018.0 |
| 20260506103021 | 13 | 117 | 0.0 | 0.0 | 0.00 | 0.00 | 0.00 | 88 | 1017.3 |
| 20260506101530 | 13 | 117 | 0.0 | 0.0 | 0.00 | 0.00 | 0.00 | 88 | 1017.2 |
| 20260506100036 | 13 | 117 | 0.0 | 0.0 | 0.00 | 0.00 | 0.00 | 88 | 1017.1 |
| 20260506093031 | 13 | 117 | 0.0 | 0.0 | 0.00 | 0.00 | 0.00 | 86 | 1016.8 |
| 20260506090002 | 13 | 116 | 0.0 | 0.0 | 0.00 | 0.00 | 0.00 | 86 | 1016.8 |
| 20260506084507 | 13 | 116 | 0.0 | 0.0 | 0.00 | 0.00 | 0.00 | 86 | 1016.8 |
| 20260506081523 | 13 | 116 | 0.0 | 0.0 | 0.00 | 0.00 | 0.00 | 85 | 1016.8 |
| 20260506073054 | 14 | 116 | 0.0 | 0.0 | 0.00 | 0.00 | 0.00 | 83 | 1016.5 |
| 20260506070103 | 14 | 148 | 0.0 | 0.0 | 0.00 | 0.00 | 0.00 | 83 | 1016.3 |
| 20260506061541 | 14 | 153 | 0.0 | 0.0 | 0.00 | 0.00 | 0.00 | 84 | 1016.2 |
| 20260506040056 | 13 | 153 | 0.0 | 0.0 | 0.00 | 0.00 | 0.00 | 83 | 1015.3 |
| 20260506040002 | 13 | 153 | 0.0 | 0.0 | 0.00 | 0.00 | 0.00 | 83 | 1015.3 |
| 20260506023057 | 16 | 153 | 0.0 | 0.0 | 0.00 | 0.00 | 0.00 | 75 | 1014.4 |
| 20260506020039 | 16 | 151 | 0.0 | 0.0 | 0.00 | 0.00 | 0.00 | 73 | 1014.4 |
| 20260506011559 | 17 | 126 | 0.0 | 4.8 | 0.00 | 0.00 | 0.00 | 70 | 1014.4 |
| 20260505230107 | 17 | 174 | 0.0 | 3.2 | 0.00 | 0.00 | 0.00 | 69 | 1015.1 |
| 20260505230051 | 17 | 174 | 0.0 | 3.2 | 0.00 | 0.00 | 0.00 | 70 | 1015.1 |
| 20260505224559 | 17 | 247 | 0.0 | 1.6 | 0.00 | 0.00 | 0.00 | 73 | 1015.2 |
| 20260505214517 | 16 | 155 | 0.0 | 1.6 | 0.00 | 0.00 | 0.00 | 73 | 1015.4 |
| 20260505211532 | 16 | 139 | 0.0 | 1.6 | 0.00 | 0.00 | 0.00 | 73 | 1015.4 |
| 20260505210006 | 16 | 122 | 0.0 | 1.6 | 0.00 | 0.00 | 0.00 | 73 | 1015.5 |
| 20260505204602 | 16 | 113 | 0.0 | 1.6 | 0.00 | 0.00 | 0.00 | 77 | 1015.6 |
| 20260505201530 | 15 | 157 | 0.0 | 0.0 | 0.00 | 0.00 | 0.00 | 79 | 1015.7 |
| 20260505191521 | 15 | 217 | 0.0 | 1.6 | 0.00 | 0.00 | 0.00 | 77 | 1015.8 |
| 20260505184556 | 15 | 174 | 0.0 | 0.0 | 0.00 | 0.00 | 0.00 | 78 | 1015.8 |
| 20260505181505 | 14 | 137 | 0.0 | 4.8 | 0.00 | 0.00 | 0.00 | 79 | 1015.7 |
| 20260505180019 | 14 | 311 | 0.0 | 4.8 | 0.00 | 0.00 | 0.00 | 81 | 1015.6 |
| 20260505173019 | 13 | 235 | 0.0 | 0.0 | 0.00 | 0.00 | 0.00 | 84 | 1015.7 |
| 20260505170028 | 12 | 164 | 0.0 | 0.0 | 0.00 | 0.00 | 0.00 | 86 | 1015.3 |
| 20260505163034 | 12 | 169 | 0.0 | 0.0 | 0.00 | 0.00 | 0.00 | 87 | 1015.3 |
| 20260505161505 | 12 | 171 | 0.0 | 0.0 | 0.00 | 0.00 | 0.00 | 88 | 1015.2 |